sat.trackr.live / text

‹ back to catalog

TJS-6

NORAD 47613 · 2021-010A

PAYLOAD ACTIVE UNKNOWN

§ Identity

Operator
Country
PRC
Launch date
2021-02-04
Launch site
XICLF
Launch vehicle
Mass (kg)
RCS (m²)

Purposes: comms

External: N2YO · Heavens-Above · Gunter

§ Orbital elements

Epoch: 2026-09-19T19:31:51.591648Z

Period
1,436.09 min
Inclination
0.0192°
Eccentricity
0.0003632
Mean motion
1.00272598 rev/d
Perigee alt
35,771.1 km
Apogee alt
35,801.7 km
Semi-major
42,164.5 km
B*
0.0000e+0
RAAN
217.5378°
Arg perigee
324.1694°
Mean anomaly
288.4711°
Rev number
2,076

§ Raw data

TJS-61 47613U 21010A   26262.81379157  .00000039  00000+0  00000+0 0  99942 47613   0.0192 217.5378 0003632 324.1694 288.4711  1.00272598 20761

JSON: /api/v1/satellites/47613 · /tle

For live sub-satellite position, see the globe view (requires WebGL).

§ Visibility from observer

Set your observer location to see the next 7 days of passes ≥ 10°. The values pass through the URL so the page stays shareable.

No JS? Fill the form by hand. The geolocation button needs JavaScript.